Location: *
(45.1333°S, 169.6333°W)
Time: 18:30:18
(UTC+00:00)

Cosmos 1302 Rocket - Pass Details

Date: 26 May 2022
Orbit: 757 x 775 km, 74.0° (Epoch: 05 July)

Event Time Altitude Azimuth Distance (km) Brightness Sun altitude
Rises 04:53:42 0° 343° (NNW) 3,215 7.8 -11.1°
Reaches altitude 10° 04:56:02 10° 343° (NNW) 2,299 7.0 -11.5°
Maximum altitude 05:01:16 84° 70° (ENE) 784 4.0 -12.4°
Drops below altitude 10° 05:06:36 10° 157° (SSE) 2,340 6.1 -13.3°
Enters shadow 05:07:46 - 158° (SSE) 2,796 6.5 -13.5°
